Flag for Germany Weather past 2 weeks in Zerbst/Anhalt, Saxony-Anhalt, Germany

Now
69 °F

Fog.


Feels Like: 69 °F
Forecast: 63 / 73 °F
Wind: 2 mph from North

Location: Magdeburg

Current Time: Jul 29, 2014 at 5:22:50 AM

Latest Report: Jul 29, 2014 at 4:00 AM


Visibility: 4 mi

Pressure: 29.82 "Hg

Humidity: 88%

Dew point: 65 °F

Location of Zerbst/AnhaltLocation

Historic Weather in Zerbst/Anhalt — Graph

°F

Zerbst/Anhalt temperature yesterday

Maximum temperature yesterday: 82 °F (at 6:00 PM)
Minimum temperature yesterday: 66 °F (at 6:00 AM)
Average temperature yesterday: 74 °F

Past Weeks' High & Low Weather Summary

 TemperatureHumidityPressure
High93 °F (Jul 20, 3:00 PM)98% (Jul 26, 6:00 AM)30.20 "Hg (Jul 26, 6:00 AM)
Low58 °F (Jul 17, 6:00 AM)20% (Jul 19, 6:00 PM)29.75 "Hg (Jul 14, 4:00 AM)
Average73 °F66%29.99 "Hg
* Reported Jul 14 4:00 AM — Jul 29 4:00 AM, Zerbst/Anhalt, Weather by CustomWeather, © 2014

Note: Actual official high and low records may vary slightly from our data, if they occured in-between our weather recording intervals... More about our weather records

Advertising

Zerbst/Anhalt weather history for previous 24 hours

 ConditionsComfort  
Time TempWeatherWind HumidityBarometerVisibility
4:00 AM
Jul 29
69 °FFog.2 mph88%29.82 "Hg4 mi
3:00 AM68 °FFog.2 mph91%29.82 "Hg4 mi
2:00 AM69 °FOvercast.1 mph90%29.83 "Hg4 mi
1:00 AM69 °FPassing clouds.2 mph88%29.84 "Hg5 mi
12:00 AM70 °FPassing clouds.1 mph86%29.85 "Hg7 mi
10:00 PM
Jul 28
77 °FOvercast.2 mph66%29.85 "Hg11 mi
9:00 PM79 °FOvercast.3 mph61%29.85 "Hg12 mi
8:00 PM82 °FPartly sunny.2 mph56%29.83 "Hg16 mi
7:00 PM82 °FScattered clouds.3 mph52%29.82 "Hg17 mi
6:00 PM82 °FScattered clouds.3 mph49%29.83 "Hg13 mi
4:00 PM82 °FPartly sunny.3 mph54%29.86 "Hg19 mi
3:00 PM81 °FPartly sunny.2 mph52%29.88 "Hg19 mi
2:00 PM82 °FPartly sunny.2 mph52%29.89 "Hg16 mi
1:00 PM79 °FPartly sunny.2 mph61%29.90 "Hg12 mi
12:00 PM75 °FPartly sunny.2 mph72%29.92 "Hg7 mi
11:00 AM72 °FFog.2 mph81%29.93 "Hg4 mi
10:00 AM72 °FPartly sunny.2 mph83%29.94 "Hg4 mi
9:00 AM67 °FLight rain. Overcast.1 mph94%29.94 "Hg2 mi
8:00 AM66 °FSprinkles. Overcast.1 mph92%29.94 "Hg3 mi
7:00 AM67 °FFog.2 mph89%29.94 "Hg4 mi
6:00 AM66 °FFog.1 mph90%29.93 "Hg4 mi
Weather by CustomWeather, © 2014

See weather overviewHow to use our weather pages